SKX2211 SPJC-SPJL

Flight info

Callsign SKX2211
Flight time 1h 28m
Altitude 35000
Route KULIS UM415 OPKUL
Aircraft A20N/M-SD3/L

Departure

Time 2026-04-25 17:33
Airport Jorge Chávez International Airport (SPJC)

Arrival

Time 2026-04-25 19:01
Airport Inca Manco Capac International Airport (SPJL)
Time Latitude Longitude Altitude Speed Heading
2026-04-25 17:19 -12.02733 -77.11485 132 ft 0 kts 244°
2026-04-25 17:20 -12.02731 -77.11481 132 ft 3 kts 244°
2026-04-25 17:20 -12.02720 -77.11456 132 ft 3 kts 244°
2026-04-25 17:20 -12.02720 -77.11432 132 ft 3 kts 298°
2026-04-25 17:21 -12.02735 -77.11419 132 ft 0 kts 338°
2026-04-25 17:21 -12.02735 -77.11418 132 ft 0 kts 337°
2026-04-25 17:26 -12.02730 -77.11420 132 ft 2 kts 336°
2026-04-25 17:26 -12.02694 -77.11432 132 ft 7 kts 12°
2026-04-25 17:26 -12.02618 -77.11412 132 ft 14 kts
2026-04-25 17:26 -12.02508 -77.11446 132 ft 18 kts 332°
2026-04-25 17:27 -12.02376 -77.11513 132 ft 23 kts 334°
2026-04-25 17:27 -12.02214 -77.11592 132 ft 27 kts 335°
2026-04-25 17:27 -12.02029 -77.11684 132 ft 30 kts 334°
2026-04-25 17:27 -12.01927 -77.11741 132 ft 18 kts 304°
2026-04-25 17:28 -12.01979 -77.11925 132 ft 23 kts 245°
2026-04-25 17:28 -12.02057 -77.12090 132 ft 27 kts 245°
2026-04-25 17:28 -12.02144 -77.12279 131 ft 30 kts 245°
2026-04-25 17:28 -12.02191 -77.12444 131 ft 22 kts 318°
2026-04-25 17:29 -12.02037 -77.12523 131 ft 26 kts 333°
2026-04-25 17:29 -12.01859 -77.12611 131 ft 29 kts 332°
2026-04-25 17:29 -12.01662 -77.12709 131 ft 32 kts 334°
2026-04-25 17:29 -12.01450 -77.12814 131 ft 35 kts 334°
2026-04-25 17:30 -12.01235 -77.12917 131 ft 27 kts 339°
2026-04-25 17:30 -12.01177 -77.13021 131 ft 18 kts 248°
2026-04-25 17:30 -12.01236 -77.13097 131 ft 7 kts 178°
2026-04-25 17:30 -12.01250 -77.13090 131 ft 0 kts 150°
2026-04-25 17:32 -12.01251 -77.13089 131 ft 5 kts 150°
2026-04-25 17:32 -12.01532 -77.12952 131 ft 81 kts 154°
2026-04-25 17:32 -12.02247 -77.12597 131 ft 142 kts 154°
2026-04-25 17:32 -12.03269 -77.12085 310 ft 173 kts 155°
2026-04-25 17:33 -12.04329 -77.11493 832 ft 178 kts 153°
2026-04-25 17:33 -12.05403 -77.10864 1448 ft 180 kts 153°
2026-04-25 17:33 -12.06490 -77.10224 2030 ft 184 kts 152°
2026-04-25 17:33 -12.07639 -77.09547 2391 ft 199 kts 152°
2026-04-25 17:34 -12.08894 -77.08808 2733 ft 216 kts 152°
2026-04-25 17:34 -12.10274 -77.07996 3027 ft 238 kts 151°
2026-04-25 17:34 -12.11766 -77.07114 3431 ft 255 kts 150°
2026-04-25 17:34 -12.13344 -77.06179 3855 ft 270 kts 150°
2026-04-25 17:35 -12.14991 -77.05203 4510 ft 275 kts 150°
2026-04-25 17:35 -12.16669 -77.04285 5225 ft 277 kts 154°
2026-04-25 17:35 -12.18409 -77.03417 5901 ft 279 kts 154°
2026-04-25 17:35 -12.20178 -77.02545 6551 ft 282 kts 154°
2026-04-25 17:36 -12.21946 -77.01673 7168 ft 285 kts 154°
2026-04-25 17:36 -12.23674 -77.00660 7744 ft 288 kts 140°
2026-04-25 17:36 -12.24977 -76.99110 8329 ft 290 kts 120°
2026-04-25 17:36 -12.25899 -76.97272 8901 ft 293 kts 116°
2026-04-25 17:37 -12.26780 -76.95398 9416 ft 295 kts 115°
2026-04-25 17:37 -12.27675 -76.93493 9920 ft 299 kts 115°
2026-04-25 17:37 -12.28582 -76.91579 10361 ft 305 kts 116°
2026-04-25 17:37 -12.29531 -76.89591 10594 ft 319 kts 116°
2026-04-25 17:38 -12.30534 -76.87498 10831 ft 332 kts 116°
2026-04-25 17:38 -12.31216 -76.86079 11011 ft 340 kts 116°
2026-04-25 17:38 -12.32620 -76.83164 11639 ft 346 kts 116°
2026-04-25 17:38 -12.33689 -76.80943 12186 ft 347 kts 116°
2026-04-25 17:39 -12.34755 -76.78732 12714 ft 350 kts 116°
2026-04-25 17:39 -12.35830 -76.76498 13214 ft 351 kts 116°
2026-04-25 17:39 -12.36911 -76.74254 13718 ft 354 kts 116°
2026-04-25 17:39 -12.37998 -76.71996 14222 ft 355 kts 116°
2026-04-25 17:40 -12.39092 -76.69723 14756 ft 358 kts 116°
2026-04-25 17:40 -12.40187 -76.67448 15307 ft 361 kts 116°
2026-04-25 17:40 -12.41293 -76.65149 15854 ft 363 kts 116°
2026-04-25 17:40 -12.42411 -76.62826 16391 ft 365 kts 116°
2026-04-25 17:41 -12.43546 -76.60486 16915 ft 368 kts 116°
2026-04-25 17:41 -12.44687 -76.58141 17412 ft 370 kts 116°
2026-04-25 17:41 -12.45825 -76.55801 17893 ft 372 kts 116°
2026-04-25 17:41 -12.46980 -76.53423 18309 ft 374 kts 116°
2026-04-25 17:42 -12.48135 -76.51044 18714 ft 376 kts 116°
2026-04-25 17:42 -12.49302 -76.48634 19092 ft 377 kts 116°
2026-04-25 17:42 -12.50469 -76.46226 19438 ft 379 kts 116°
2026-04-25 17:42 -12.51644 -76.43799 19790 ft 382 kts 116°
2026-04-25 17:43 -12.52818 -76.41375 20138 ft 384 kts 116°
2026-04-25 17:43 -12.54009 -76.38908 20475 ft 386 kts 115°
2026-04-25 17:43 -12.55198 -76.36445 20804 ft 388 kts 115°
2026-04-25 17:43 -12.56391 -76.33975 21124 ft 390 kts 115°
2026-04-25 17:44 -12.57592 -76.31489 21439 ft 392 kts 115°
2026-04-25 17:44 -12.58797 -76.28992 21745 ft 394 kts 115°
2026-04-25 17:44 -12.60011 -76.26479 22051 ft 395 kts 115°
2026-04-25 17:44 -12.61237 -76.23941 22357 ft 397 kts 115°
2026-04-25 17:45 -12.62464 -76.21398 22650 ft 398 kts 115°
2026-04-25 17:45 -12.63273 -76.19720 22833 ft 399 kts 115°
2026-04-25 17:45 -12.64923 -76.16299 23186 ft 402 kts 115°
2026-04-25 17:45 -12.66151 -76.13752 23458 ft 403 kts 115°
2026-04-25 17:46 -12.67400 -76.11160 23794 ft 405 kts 115°
2026-04-25 17:46 -12.68644 -76.08577 24123 ft 407 kts 115°
2026-04-25 17:46 -12.69899 -76.05969 24449 ft 409 kts 115°
2026-04-25 17:46 -12.71161 -76.03349 24771 ft 411 kts 115°
2026-04-25 17:47 -12.72414 -76.00747 25081 ft 413 kts 115°
2026-04-25 17:47 -12.73796 -75.98132 25383 ft 416 kts 120°
2026-04-25 17:47 -12.75405 -75.95692 25680 ft 418 kts 126°
2026-04-25 17:47 -12.77282 -75.93372 25976 ft 421 kts 131°
2026-04-25 17:48 -12.81294 -75.89005 26514 ft 425 kts 132°
2026-04-25 17:48 -12.83341 -75.86806 26777 ft 427 kts 132°
2026-04-25 17:48 -12.85405 -75.84581 27052 ft 429 kts 132°
2026-04-25 17:49 -12.87465 -75.82355 27320 ft 430 kts 131°
2026-04-25 17:49 -12.89518 -75.80132 27575 ft 432 kts 131°
2026-04-25 17:49 -12.91581 -75.77894 27825 ft 434 kts 131°
2026-04-25 17:49 -12.93642 -75.75657 28078 ft 436 kts 131°
2026-04-25 17:50 -12.95740 -75.73377 28332 ft 438 kts 131°
2026-04-25 17:50 -12.97828 -75.71107 28580 ft 440 kts 131°
2026-04-25 17:50 -12.99940 -75.68811 28846 ft 441 kts 131°
2026-04-25 17:50 -13.02051 -75.66519 29174 ft 440 kts 131°
2026-04-25 17:51 -13.04067 -75.64211 29514 ft 439 kts 128°
2026-04-25 17:51 -13.05970 -75.61779 29849 ft 437 kts 125°
2026-04-25 17:51 -13.07732 -75.59243 30179 ft 435 kts 122°
2026-04-25 17:51 -13.09392 -75.56630 30505 ft 435 kts 121°
2026-04-25 17:52 -13.11027 -75.54015 30833 ft 434 kts 121°
2026-04-25 17:52 -13.12107 -75.52283 31053 ft 433 kts 121°
2026-04-25 17:52 -13.14261 -75.48831 31491 ft 432 kts 121°
2026-04-25 17:52 -13.15882 -75.46234 31818 ft 431 kts 121°
2026-04-25 17:53 -13.17496 -75.43651 32135 ft 431 kts 121°
2026-04-25 17:53 -13.19124 -75.41045 32418 ft 431 kts 121°
2026-04-25 17:53 -13.20727 -75.38480 32657 ft 432 kts 121°
2026-04-25 17:53 -13.22351 -75.35879 32888 ft 433 kts 121°
2026-04-25 17:54 -13.23984 -75.33264 33111 ft 434 kts 121°
2026-04-25 17:54 -13.25624 -75.30638 33333 ft 435 kts 121°
2026-04-25 17:54 -13.27257 -75.28023 33552 ft 436 kts 121°
2026-04-25 17:54 -13.28882 -75.25417 33732 ft 437 kts 121°
2026-04-25 17:55 -13.30529 -75.22777 33809 ft 437 kts 121°
2026-04-25 17:55 -13.32147 -75.20183 34170 ft 433 kts 121°
2026-04-25 17:55 -13.33753 -75.17609 34709 ft 424 kts 121°
2026-04-25 17:55 -13.35331 -75.15079 35312 ft 413 kts 120°
2026-04-25 17:56 -13.36850 -75.12639 35939 ft 403 kts 120°
2026-04-25 17:56 -13.38339 -75.10246 36329 ft 402 kts 120°
2026-04-25 17:56 -13.39869 -75.07783 36538 ft 407 kts 120°
2026-04-25 17:56 -13.41403 -75.05312 36651 ft 415 kts 120°
2026-04-25 17:57 -13.42957 -75.02812 36658 ft 424 kts 121°
2026-04-25 17:57 -13.46169 -74.97624 36646 ft 430 kts 119°
2026-04-25 17:58 -13.48975 -74.92258 36566 ft 428 kts 113°
2026-04-25 17:58 -13.51392 -74.86663 36437 ft 428 kts 112°
2026-04-25 17:59 -13.53768 -74.81091 36362 ft 429 kts 112°
2026-04-25 17:59 -13.56167 -74.75469 36305 ft 429 kts 112°
2026-04-25 18:00 -13.58560 -74.69862 36273 ft 429 kts 112°
2026-04-25 18:00 -13.60938 -74.64291 36256 ft 429 kts 112°
2026-04-25 18:01 -13.63340 -74.58656 36234 ft 429 kts 112°
2026-04-25 18:01 -13.65720 -74.53068 36200 ft 429 kts 112°
2026-04-25 18:02 -13.68107 -74.47457 36153 ft 429 kts 112°
2026-04-25 18:02 -13.70486 -74.41861 36106 ft 429 kts 112°
2026-04-25 18:03 -13.72869 -74.36255 36063 ft 429 kts 112°
2026-04-25 18:03 -13.75270 -74.30624 36013 ft 429 kts 112°
2026-04-25 18:04 -13.77672 -74.24980 35958 ft 429 kts 112°
2026-04-25 18:04 -13.80045 -74.19389 35894 ft 429 kts 112°
2026-04-25 18:05 -13.82437 -74.13743 35818 ft 430 kts 112°
2026-04-25 18:05 -13.84813 -74.08133 35804 ft 430 kts 112°
2026-04-25 18:06 -13.87204 -74.02483 35836 ft 431 kts 112°
2026-04-25 18:06 -13.89579 -73.96870 35856 ft 431 kts 112°
2026-04-25 18:07 -13.91971 -73.91209 35870 ft 431 kts 112°
2026-04-25 18:07 -13.94356 -73.85560 35873 ft 431 kts 112°
2026-04-25 18:08 -13.96724 -73.79948 35870 ft 431 kts 112°
2026-04-25 18:08 -13.99110 -73.74287 35853 ft 430 kts 112°
2026-04-25 18:09 -14.01495 -73.68626 35833 ft 430 kts 112°
2026-04-25 18:09 -14.03863 -73.62995 35802 ft 431 kts 112°
2026-04-25 18:10 -14.06243 -73.57329 35763 ft 431 kts 112°
2026-04-25 18:10 -14.08616 -73.51683 35734 ft 431 kts 112°
2026-04-25 18:11 -14.11009 -73.46008 35708 ft 431 kts 112°
2026-04-25 18:11 -14.13391 -73.40349 35678 ft 431 kts 112°
2026-04-25 18:12 -14.15768 -73.34690 35653 ft 431 kts 112°
2026-04-25 18:12 -14.18151 -73.29006 35639 ft 432 kts 112°
2026-04-25 18:13 -14.20530 -73.23329 35640 ft 432 kts 112°
2026-04-25 18:13 -14.22907 -73.17650 35655 ft 432 kts 112°
2026-04-25 18:14 -14.26465 -73.09142 35680 ft 433 kts 112°
2026-04-25 18:14 -14.28849 -73.03438 35703 ft 433 kts 112°
2026-04-25 18:15 -14.31229 -72.97738 35744 ft 433 kts 112°
2026-04-25 18:15 -14.33596 -72.92065 35815 ft 433 kts 112°
2026-04-25 18:16 -14.35966 -72.86380 35889 ft 433 kts 112°
2026-04-25 18:17 -14.39525 -72.77833 35975 ft 433 kts 112°
2026-04-25 18:17 -14.41897 -72.72132 36012 ft 433 kts 112°
2026-04-25 18:18 -14.44270 -72.66427 36033 ft 432 kts 112°
2026-04-25 18:18 -14.46616 -72.60777 36049 ft 432 kts 113°
2026-04-25 18:19 -14.48988 -72.55062 36066 ft 432 kts 113°
2026-04-25 18:19 -14.51341 -72.49387 36086 ft 431 kts 113°
2026-04-25 18:20 -14.53687 -72.43727 36091 ft 431 kts 112°
2026-04-25 18:20 -14.56039 -72.38042 36109 ft 430 kts 112°
2026-04-25 18:21 -14.58388 -72.32360 36135 ft 430 kts 112°
2026-04-25 18:21 -14.60738 -72.26672 36132 ft 430 kts 112°
2026-04-25 18:22 -14.63075 -72.21014 36114 ft 430 kts 112°
2026-04-25 18:22 -14.65412 -72.15350 36104 ft 430 kts 112°
2026-04-25 18:23 -14.67760 -72.09656 36100 ft 430 kts 112°
2026-04-25 18:23 -14.70087 -72.04008 36100 ft 430 kts 112°
2026-04-25 18:24 -14.72436 -71.98299 36102 ft 430 kts 112°
2026-04-25 18:24 -14.74759 -71.92647 36088 ft 430 kts 112°
2026-04-25 18:25 -14.77096 -71.86955 36050 ft 430 kts 112°
2026-04-25 18:25 -14.79430 -71.81270 35988 ft 430 kts 112°
2026-04-25 18:26 -14.81771 -71.75578 35924 ft 430 kts 112°
2026-04-25 18:26 -14.84102 -71.69903 35887 ft 430 kts 112°
2026-04-25 18:27 -14.86426 -71.64233 35882 ft 430 kts 112°
2026-04-25 18:27 -14.88745 -71.58569 35968 ft 430 kts 112°
2026-04-25 18:28 -14.91075 -71.52869 36103 ft 431 kts 112°
2026-04-25 18:28 -14.93403 -71.47173 36177 ft 431 kts 112°
2026-04-25 18:29 -14.96885 -71.38641 36200 ft 430 kts 112°
2026-04-25 18:30 -15.01528 -71.27236 36209 ft 431 kts 112°
2026-04-25 18:30 -15.03858 -71.21507 36145 ft 431 kts 112°
2026-04-25 18:31 -15.06175 -71.15807 36093 ft 431 kts 112°
2026-04-25 18:31 -15.08331 -71.10050 36055 ft 431 kts 105°
2026-04-25 18:32 -15.09249 -71.03966 36034 ft 430 kts 91°
2026-04-25 18:32 -15.08826 -70.97784 36013 ft 431 kts 83°
2026-04-25 18:33 -15.08347 -70.91658 35981 ft 431 kts 92°
2026-04-25 18:33 -15.09448 -70.85615 35978 ft 431 kts 109°
2026-04-25 18:34 -15.12067 -70.80014 35990 ft 431 kts 118°
2026-04-25 18:34 -15.15007 -70.74601 35997 ft 431 kts 118°
2026-04-25 18:35 -15.16450 -70.71935 35786 ft 430 kts 118°
2026-04-25 18:35 -15.17915 -70.69215 35057 ft 439 kts 118°
2026-04-25 18:35 -15.19395 -70.66459 34415 ft 440 kts 118°
2026-04-25 18:35 -15.20888 -70.63674 33993 ft 436 kts 118°
2026-04-25 18:36 -15.22331 -70.60977 33441 ft 431 kts 118°
2026-04-25 18:36 -15.23783 -70.58265 32852 ft 426 kts 118°
2026-04-25 18:36 -15.25192 -70.55632 32285 ft 422 kts 118°
2026-04-25 18:36 -15.26614 -70.52975 31717 ft 417 kts 118°
2026-04-25 18:37 -15.28241 -70.50526 31262 ft 412 kts 134°
2026-04-25 18:37 -15.30557 -70.48876 30860 ft 407 kts 157°
2026-04-25 18:37 -15.33297 -70.48284 30476 ft 402 kts 179°
2026-04-25 18:37 -15.36031 -70.48726 30097 ft 396 kts 199°
2026-04-25 18:38 -15.38440 -70.50024 29759 ft 389 kts 218°
2026-04-25 18:38 -15.40315 -70.52035 29430 ft 381 kts 237°
2026-04-25 18:38 -15.41431 -70.54443 29114 ft 372 kts 256°
2026-04-25 18:38 -15.41770 -70.57066 28794 ft 361 kts 274°
2026-04-25 18:39 -15.41340 -70.59573 28472 ft 352 kts 292°
2026-04-25 18:39 -15.40299 -70.61807 28128 ft 345 kts 301°
2026-04-25 18:39 -15.39096 -70.63945 27719 ft 343 kts 302°
2026-04-25 18:39 -15.37896 -70.66077 27317 ft 342 kts 302°
2026-04-25 18:40 -15.36734 -70.68188 26940 ft 339 kts 301°
2026-04-25 18:40 -15.35570 -70.70330 26553 ft 336 kts 301°
2026-04-25 18:40 -15.34327 -70.72294 26327 ft 328 kts 314°
2026-04-25 18:40 -15.32583 -70.73840 26249 ft 327 kts 330°
2026-04-25 18:41 -15.30534 -70.74786 26209 ft 325 kts 346°
2026-04-25 18:41 -15.28286 -70.75109 26181 ft 324 kts
2026-04-25 18:41 -15.26069 -70.74776 26153 ft 323 kts 18°
2026-04-25 18:41 -15.24025 -70.73821 26125 ft 323 kts 34°
2026-04-25 18:42 -15.22312 -70.72314 26136 ft 324 kts 49°
2026-04-25 18:42 -15.21427 -70.71065 26153 ft 325 kts 60°
2026-04-25 18:42 -15.20389 -70.68121 26187 ft 328 kts 81°
2026-04-25 18:42 -15.20344 -70.65786 26199 ft 331 kts 97°
2026-04-25 18:43 -15.20951 -70.63469 26189 ft 333 kts 113°
2026-04-25 18:43 -15.22024 -70.61359 26173 ft 335 kts 118°
2026-04-25 18:43 -15.23184 -70.59257 26146 ft 336 kts 118°
2026-04-25 18:43 -15.24345 -70.57149 26118 ft 336 kts 118°
2026-04-25 18:44 -15.25481 -70.55062 26080 ft 336 kts 117°
2026-04-25 18:44 -15.26623 -70.52948 26049 ft 336 kts 118°
2026-04-25 18:44 -15.27983 -70.50966 26017 ft 338 kts 134°
2026-04-25 18:44 -15.29866 -70.49521 26011 ft 339 kts 152°
2026-04-25 18:45 -15.32095 -70.48704 26018 ft 341 kts 169°
2026-04-25 18:45 -15.34490 -70.48594 26030 ft 343 kts 187°
2026-04-25 18:45 -15.36783 -70.49208 26045 ft 343 kts 204°
2026-04-25 18:45 -15.38827 -70.50490 26058 ft 343 kts 222°
2026-04-25 18:46 -15.40405 -70.52318 26080 ft 341 kts 239°
2026-04-25 18:46 -15.41397 -70.54534 26103 ft 340 kts 256°
2026-04-25 18:46 -15.41727 -70.56920 26073 ft 337 kts 273°
2026-04-25 18:46 -15.41377 -70.59325 25989 ft 333 kts 290°
2026-04-25 18:47 -15.40401 -70.61478 25868 ft 330 kts 307°
2026-04-25 18:47 -15.38913 -70.63227 25781 ft 326 kts 322°
2026-04-25 18:47 -15.36996 -70.64495 25735 ft 324 kts 338°
2026-04-25 18:47 -15.34845 -70.65157 25709 ft 322 kts 354°
2026-04-25 18:48 -15.32625 -70.65183 25686 ft 321 kts
2026-04-25 18:48 -15.30462 -70.64574 25663 ft 321 kts 25°
2026-04-25 18:48 -15.28551 -70.63375 25640 ft 322 kts 40°
2026-04-25 18:48 -15.27038 -70.61687 25612 ft 323 kts 56°
2026-04-25 18:49 -15.26021 -70.59607 25588 ft 325 kts 71°
2026-04-25 18:49 -15.25601 -70.57302 25559 ft 327 kts 87°
2026-04-25 18:49 -15.25814 -70.54984 25528 ft 329 kts 103°
2026-04-25 18:49 -15.26655 -70.52769 25502 ft 333 kts 116°
2026-04-25 18:50 -15.27812 -70.50590 25189 ft 364 kts 118°
2026-04-25 18:50 -15.29089 -70.48254 24747 ft 377 kts 118°
2026-04-25 18:50 -15.30382 -70.45881 24318 ft 380 kts 118°
2026-04-25 18:50 -15.31686 -70.43468 23936 ft 391 kts 117°
2026-04-25 18:51 -15.33017 -70.40985 23689 ft 398 kts 117°
2026-04-25 18:51 -15.33914 -70.39310 23635 ft 401 kts 117°
2026-04-25 18:51 -15.35699 -70.35965 23276 ft 402 kts 117°
2026-04-25 18:51 -15.37071 -70.33392 22528 ft 408 kts 117°
2026-04-25 18:52 -15.38452 -70.30802 21795 ft 412 kts 117°
2026-04-25 18:52 -15.39817 -70.28244 21268 ft 409 kts 117°
2026-04-25 18:52 -15.41197 -70.25656 20762 ft 405 kts 117°
2026-04-25 18:52 -15.42537 -70.23141 20263 ft 402 kts 117°
2026-04-25 18:53 -15.43882 -70.20613 19762 ft 399 kts 117°
2026-04-25 18:53 -15.45219 -70.18102 19236 ft 397 kts 118°
2026-04-25 18:53 -15.46696 -70.15678 18675 ft 396 kts 125°
2026-04-25 18:53 -15.48427 -70.13557 18497 ft 382 kts 133°
2026-04-25 18:54 -15.52143 -70.09886 18382 ft 352 kts 136°
2026-04-25 18:54 -15.53880 -70.08213 18323 ft 336 kts 136°
2026-04-25 18:54 -15.55564 -70.06586 18268 ft 321 kts 135°
2026-04-25 18:55 -15.57154 -70.05038 18216 ft 306 kts 135°
2026-04-25 18:55 -15.58673 -70.03558 18163 ft 293 kts 135°
2026-04-25 18:55 -15.60135 -70.02137 18104 ft 282 kts 135°
2026-04-25 18:55 -15.61346 -70.00601 17827 ft 276 kts 110°
2026-04-25 18:56 -15.61665 -69.98678 17452 ft 270 kts 82°
2026-04-25 18:56 -15.61139 -69.96865 17168 ft 261 kts 60°
2026-04-25 18:56 -15.59974 -69.95452 16822 ft 252 kts 37°
2026-04-25 18:56 -15.58448 -69.94673 16589 ft 240 kts 15°
2026-04-25 18:57 -15.56831 -69.94552 16433 ft 227 kts 353°
2026-04-25 18:57 -15.55445 -69.95172 16334 ft 211 kts 322°
2026-04-25 18:57 -15.54482 -69.96268 16342 ft 203 kts 304°
2026-04-25 18:57 -15.54016 -69.97098 16360 ft 204 kts 298°
2026-04-25 18:58 -15.53247 -69.98917 16257 ft 206 kts 293°
2026-04-25 18:58 -15.52185 -70.01723 15245 ft 217 kts 292°
2026-04-25 18:58 -15.51638 -70.03145 14870 ft 206 kts 292°
2026-04-25 18:59 -15.50568 -70.05868 14310 ft 208 kts 294°
2026-04-25 18:59 -15.49465 -70.08556 13778 ft 190 kts 294°
2026-04-25 19:00 -15.48536 -70.11041 13256 ft 184 kts 294°
2026-04-25 19:00 -15.48064 -70.12265 13052 ft 185 kts 294°
2026-04-25 19:01 -15.47106 -70.14708 12624 ft 175 kts 293°
2026-04-25 19:01 -15.46815 -70.15453 12622 ft 69 kts 292°
2026-04-25 19:01 -15.46788 -70.15649 12623 ft 17 kts 225°
2026-04-25 19:01 -15.46873 -70.15683 12625 ft 12 kts 186°